Showing default

OPS 8068, 1580

Orbit data source: Space-Track

OPS 8068, 1580 is a payload satellite owned by USAF SSD (US) in SSO that was launched on Fri, 10 Sep 1965 UTC via a THOR BURNER 1 launch vehicle from the Air Force Western Test Range (AFWTR). Payload-class satellites include a variety of spacecraft equipped with specific instruments for various scientific and technological missions. These include communications satellites like Starlink; space stations such as the ISS; scientific satellites like the Hubble; Earth observation satellites from companies like Planet Labs, Umbra, and HawkEye 360; GPS; miniature CubeSats for education and research; and military/defense satellites.

Loading next visibility...
Identifier
1580, 1965-072A
Orbit
SSO
Country
Flag of USUS
Related business
Manufacturer
RCA/East Windsor
Mission
Spacecraft
Bus & Motor
P35, Unknown motor
Mass
72 kg wet, 72 kg dry
Launch date (UTC)
1965-09-10 (60 years ago)
Launch vehicle
THOR BURNER 1
Launch site
Air Force Western Test Range (AFWTR)
Object type
Payload
Rocket body
Debris
Shape & HBR
Unknown
Radar Cross Section
Medium (>0.1 m² and <1 m²)

Expand to show TLE details & history
Last TLE update: 23 hours ago

TLE from 23 hours ago
0 OPS 8068
1 01580U 65072A   25305.42045268  .00000305  00000-0  10445-3 0  9995
2 01580  98.3919 104.6373 0229460 359.0391   1.0321 14.29437763100477
Epoch: 2025-11-01T10:05Z
TLE epoch observation values (Epoch: 2025-11-01T10:05:27.111Z)
Latitude
-0°
Longitude
-87.67645°
Altitude
631.982 km
Speed
7.628 km/s
True Right ascension
06h 58m 32s
True Declination
0° 00' 00"
Sunlit
Object was in daylight at epoch
Visualization orbit readout
Latitude
Unknown
Longitude
Unknown
Altitude
Unknown
Speed
Unknown
Apparent Right ascension
Unknown
Apparent Declination
Unknown
Sunlit
N/A
Visualization observer readout
Local Sidereal Time
04:32:52
Azimuth
Unknown
Elevation
Unknown
Doppler factor
Unknown
Orbital elements
Apogee altitude
955.237 km
Perigee altitude
626.242 km
Semi-major axis
7,168.876 km
Eccentricity
0.02295
Inclination
98.3919°
RAAN
104.6373°
Arg. of periapsis
359.0391°
True anomaly
1.08086°
Mean anomaly
1.0321°
Eccentric anomaly
1.05634°
Mean motion
3.57574 °/min
Orbital period
100.68 mins
BSTAR
0.00010445
Loading maneuver chart data...
Computing Atmospheric mass density...
Loading historical data...
Loading historical data...
Loading historical data...
Loading historical data...
Loading historical data...
Loading historical data...
Loading historical data...

Documentation

Showing up to 5 results
|